,,PA_Meas_PMT16A,,PR_Meas_QMR101_102,,RH_Meas_QMH101,,SR_Meas_QMS101,,TA_Meas_QMH101,,GenWind,,GenWind,
time,status,PA,status,PR,status,RH,status,SR,status,TA,status,DirAvg,status,SpdAvg,
2012-10-23, 00:00:04,VALID,916.689,VALID,0,VALID,96.8098,VALID,0,VALID,18.8672,VALID,148,VALID,0.0402344,
2012-10-23, 00:01:04,VALID,916.7,VALID,0,VALID,96.8326,VALID,0,VALID,18.8882,VALID,148,VALID,0.748047,
2012-10-23, 00:02:04,VALID,916.668,VALID,0,VALID,96.8631,VALID,0,VALID,18.8687,VALID,167,VALID,0.514063,
2012-10-23, 00:03:04,VALID,916.682,VALID,0,VALID,96.8631,VALID,0,VALID,18.8687,VALID,167,VALID,0.807422,
2012-10-23, 00:04:05,VALID,916.663,VALID,0,VALID,96.8784,VALID,0,VALID,18.8687,VALID,167,VALID,0.700781,
2012-10-23, 00:05:05,VALID,916.68,VALID,0,VALID,96.9165,VALID,0,VALID,18.8492,VALID,166,VALID,0.665625,
2012-10-23, 00:06:05,VALID,916.671,VALID,0,VALID,96.9165,VALID,0,VALID,18.8477,VALID,166,VALID,0.204688,
2012-10-23, 00:07:05,VALID,916.684,VALID,0,VALID,96.886,VALID,0,VALID,18.8282,VALID,162,VALID,0.516406,
2012-10-23, 00:08:05,VALID,916.643,VALID,0,VALID,96.886,VALID,0,VALID,18.8102,VALID,169,VALID,1.21406,
2012-10-23, 00:09:05,VALID,916.64,VALID,0,VALID,96.8403,VALID,0,VALID,18.8297,VALID,167,VALID,1.4457,
2012-10-23, 00:10:05,VALID,916.612,VALID,0,VALID,96.7945,VALID,0,VALID,18.8477,VALID,160,VALID,1.07031,
2012-10-23, 00:11:05,VALID,916.629,VALID,0,VALID,96.7411,VALID,0,VALID,18.8672,VALID,142,VALID,0.905469,
2012-10-23, 00:12:05,VALID,916.626,VALID,0,VALID,96.6497,VALID,0,VALID,18.8882,VALID,137,VALID,1.19609,
2012-10-23, 00:13:05,VALID,916.606,VALID,0,VALID,96.421,VALID,0,VALID,18.8687,VALID,106,VALID,1.62383,
2012-10-23, 00:14:05,VALID,916.63,VALID,0,VALID,96.3447,VALID,0,VALID,18.9077,VALID,115,VALID,1.33047,
2012-10-23, 00:15:05,VALID,916.602,VALID,0,VALID,96.2533,VALID,0,VALID,18.8672,VALID,117,VALID,1.20742,
2012-10-23, 00:16:05,VALID,916.614,VALID,0,VALID,96.1313,VALID,0,VALID,18.8882,VALID,117,VALID,1.30586,
2012-10-23, 00:17:05,VALID,916.595,VALID,0,VALID,96.0932,VALID,0,VALID,18.8477,VALID,118,VALID,0.631641,
2012-10-23, 00:18:05,VALID,916.57,VALID,0,VALID,96.0169,VALID,0,VALID,18.8282,VALID,118,VALID,1.00742,
2012-10-23, 00:19:05,VALID,916.552,VALID,0,VALID,95.9254,VALID,0,VALID,18.8492,VALID,118,VALID,1.00195,
2012-10-23, 00:20:05,VALID,916.539,VALID,0,VALID,95.834,VALID,0,VALID,18.8282,VALID,96,VALID,0.814062,
2012-10-23, 00:21:05,VALID,916.494,VALID,0,VALID,95.8187,VALID,0,VALID,18.8492,VALID,117,VALID,0.979688,
2012-10-23, 00:22:05,VALID,916.453,VALID,0,VALID,95.7501,VALID,0,VALID,18.8687,VALID,113,VALID,1.1207,
2012-10-23, 00:23:05,VALID,916.412,VALID,0,VALID,95.7349,VALID,0,VALID,18.8672,VALID,126,VALID,1.13711,
2012-10-23, 00:24:05,VALID,916.391,VALID,0,VALID,95.6434,VALID,0,VALID,18.9467,VALID,116,VALID,0.836719,
2012-10-23, 00:25:05,VALID,916.333,VALID,0,VALID,95.4909,VALID,0,VALID,18.9662,VALID,119,VALID,0.838281,
2012-10-23, 00:26:05,VALID,916.32,VALID,0,VALID,95.3766,VALID,0,VALID,18.9452,VALID,119,VALID,0.789453,
2012-10-23, 00:27:05,VALID,916.319,VALID,0,VALID,95.3308,VALID,0,VALID,18.9467,VALID,119,VALID,0.908203,
2012-10-23, 00:28:05,VALID,916.25,VALID,0,VALID,95.247,VALID,0,VALID,18.9467,VALID,119,VALID,0.673828,
2012-10-23, 00:29:05,VALID,916.237,VALID,0,VALID,95.2393,VALID,0,VALID,18.9272,VALID,119,VALID,0.788672,
2012-10-23, 00:30:05,VALID,916.224,VALID,0,VALID,95.2775,VALID,0,VALID,18.8867,VALID,119,VALID,0.769141,
2012-10-23, 00:31:05,VALID,916.203,VALID,0,VALID,95.3384,VALID,0,VALID,18.9272,VALID,119,VALID,0.924219,
2012-10-23, 00:32:05,VALID,916.178,VALID,0,VALID,95.3308,VALID,0,VALID,18.8867,VALID,119,VALID,0.756641,
2012-10-23, 00:33:05,VALID,916.141,VALID,0,VALID,95.2622,VALID,0,VALID,18.8882,VALID,119,VALID,0.642578,
2012-10-23, 00:34:05,VALID,916.087,VALID,0,VALID,95.3308,VALID,0,VALID,18.8882,VALID,119,VALID,0.875391,
2012-10-23, 00:35:05,VALID,916.083,VALID,0,VALID,95.2775,VALID,0,VALID,18.8882,VALID,119,VALID,0.809766,
2012-10-23, 00:36:05,VALID,916.102,VALID,0,VALID,95.3766,VALID,0,VALID,18.8687,VALID,115,VALID,1.025,
2012-10-23, 00:37:05,VALID,916.092,VALID,0,VALID,95.4604,VALID,0,VALID,18.8882,VALID,97,VALID,0.876172,
2012-10-23, 00:38:05,VALID,916.114,VALID,0,VALID,95.468,VALID,0,VALID,18.8882,VALID,103,VALID,1.1668,
2012-10-23, 00:39:05,VALID,916.092,VALID,0,VALID,95.4757,VALID,0,VALID,18.8492,VALID,103,VALID,0.641797,
2012-10-23, 00:40:05,VALID,916.1,VALID,0,VALID,95.5519,VALID,0,VALID,18.8477,VALID,103,VALID,0.694531,
2012-10-23, 00:41:05,VALID,916.1,VALID,0,VALID,95.5748,VALID,0,VALID,18.8297,VALID,117,VALID,0.836328,
2012-10-23, 00:42:05,VALID,916.083,VALID,0,VALID,95.6815,VALID,0,VALID,18.8087,VALID,117,VALID,1.02578,
2012-10-23, 00:43:05,VALID,916.08,VALID,0,VALID,95.712,VALID,0,VALID,18.8297,VALID,117,VALID,0.876172,
2012-10-23, 00:44:05,VALID,916.054,VALID,0,VALID,95.7654,VALID,0,VALID,18.8087,VALID,117,VALID,0.698438,
2012-10-23, 00:45:05,VALID,916.056,VALID,0,VALID,95.7958,VALID,0,VALID,18.8282,VALID,117,VALID,0.576953,
2012-10-23, 00:46:05,VALID,916.044,VALID,0,VALID,95.6357,VALID,0,VALID,18.7697,VALID,117,VALID,0.532812,
2012-10-23, 00:47:05,VALID,916.054,VALID,0,VALID,95.7196,VALID,0,VALID,18.7308,VALID,117,VALID,0.762109,
2012-10-23, 00:48:05,VALID,916.04,VALID,0.2,VALID,95.8111,VALID,0,VALID,18.6918,VALID,117,VALID,0.788672,
2012-10-23, 00:49:05,VALID,916.019,VALID,0,VALID,95.8645,VALID,0,VALID,18.6932,VALID,117,VALID,0.86875,
2012-10-23, 00:50:05,VALID,916.035,VALID,0,VALID,95.8797,VALID,0,VALID,18.7127,VALID,117,VALID,0.966406,
2012-10-23, 00:51:05,VALID,916.05,VALID,0,VALID,95.8568,VALID,0,VALID,18.6932,VALID,114,VALID,0.888672,
2012-10-23, 00:52:05,VALID,916.016,VALID,0,VALID,95.8263,VALID,0,VALID,18.6333,VALID,93,VALID,0.842969,
2012-10-23, 00:53:05,VALID,916.028,VALID,0,VALID,95.8568,VALID,0,VALID,18.6138,VALID,93,VALID,1.05313,
2012-10-23, 00:54:05,VALID,916.026,VALID,0,VALID,95.9483,VALID,0,VALID,18.5762,VALID,93,VALID,1.24609,
2012-10-23, 00:55:05,VALID,916.009,VALID,0,VALID,96.116,VALID,0,VALID,18.5748,VALID,62,VALID,1.29727,
2012-10-23, 00:56:05,VALID,915.995,VALID,0,VALID,96.1618,VALID,0,VALID,18.5553,VALID,62,VALID,1.03555,
2012-10-23, 00:57:05,VALID,915.959,VALID,0,VALID,96.3905,VALID,0,VALID,18.5943,VALID,83,VALID,1.31172,
2012-10-23, 00:58:05,VALID,915.97,VALID,0,VALID,96.4362,VALID,0,VALID,18.5748,VALID,92,VALID,0.905859,
2012-10-23, 00:59:05,VALID,915.961,VALID,0,VALID,96.5506,VALID,0,VALID,18.6347,VALID,88,VALID,1.14609,
2012-10-23, 01:00:05,VALID,915.925,VALID,0,VALID,96.5353,VALID,0,VALID,18.6152,VALID,66,VALID,1.2,
2012-10-23, 01:01:05,VALID,915.909,VALID,0,VALID,96.5582,VALID,0,VALID,18.6152,VALID,66,VALID,1.27773,
2012-10-23, 01:02:05,VALID,915.902,VALID,0,VALID,96.642,VALID,0,VALID,18.6138,VALID,66,VALID,1.12734,
2012-10-23, 01:03:05,VALID,915.864,VALID,0,VALID,96.6954,VALID,0,VALID,18.6737,VALID,67,VALID,1.01328,
2012-10-23, 01:04:05,VALID,915.835,VALID,0,VALID,96.7564,VALID,0,VALID,18.6737,VALID,66,VALID,1.01367,
2012-10-23, 01:05:05,VALID,915.827,VALID,0,VALID,96.7716,VALID,0,VALID,18.6932,VALID,67,VALID,0.786719,
2012-10-23, 01:06:05,VALID,915.799,VALID,0,VALID,96.8021,VALID,0,VALID,18.6932,VALID,66,VALID,0.775781,
2012-10-23, 01:07:05,VALID,915.765,VALID,0,VALID,96.7945,VALID,0,VALID,18.6932,VALID,66,VALID,0.709766,
2012-10-23, 01:08:05,VALID,915.791,VALID,0,VALID,96.8326,VALID,0,VALID,18.6932,VALID,66,VALID,0.794141,
2012-10-23, 01:09:05,VALID,915.8,VALID,0,VALID,96.8174,VALID,0,VALID,18.6723,VALID,67,VALID,0.432813,
2012-10-23, 01:10:05,VALID,915.807,VALID,0,VALID,96.8098,VALID,0,VALID,18.6932,VALID,66,VALID,0.00585938,
2012-10-23, 01:11:05,VALID,915.828,VALID,0,VALID,96.8403,VALID,0,VALID,18.6918,VALID,66,VALID,0,
2012-10-23, 01:12:05,VALID,915.846,VALID,0,VALID,96.8403,VALID,0,VALID,18.6918,VALID,66,VALID,0,
2012-10-23, 01:13:05,VALID,915.824,VALID,0,VALID,96.8403,VALID,0,VALID,18.6737,VALID,66,VALID,0.419922,
2012-10-23, 01:14:05,VALID,915.826,VALID,0,VALID,96.8326,VALID,0,VALID,18.6723,VALID,66,VALID,0.529297,
2012-10-23, 01:15:05,VALID,915.797,VALID,0,VALID,96.8479,VALID,0,VALID,18.6528,VALID,66,VALID,0.0839844,
2012-10-23, 01:16:05,VALID,915.799,VALID,0,VALID,96.8555,VALID,0,VALID,18.6723,VALID,66,VALID,0.364453,
2012-10-23, 01:17:05,VALID,915.761,VALID,0,VALID,96.8707,VALID,0,VALID,18.6528,VALID,149,VALID,0.484766,
2012-10-23, 01:18:05,VALID,915.72,VALID,0,VALID,96.886,VALID,0,VALID,18.6723,VALID,149,VALID,0.208594,
2012-10-23, 01:19:05,VALID,915.692,VALID,0,VALID,96.9165,VALID,0.107441,VALID,18.6918,VALID,149,VALID,0,
2012-10-23, 01:20:05,VALID,915.667,VALID,0,VALID,96.9394,VALID,0,VALID,18.6918,VALID,149,VALID,0,
2012-10-23, 01:21:05,VALID,915.661,VALID,0,VALID,96.9394,VALID,0,VALID,18.7113,VALID,149,VALID,0,
2012-10-23, 01:22:05,VALID,915.634,VALID,0,VALID,96.9317,VALID,0,VALID,18.6918,VALID,149,VALID,0,
2012-10-23, 01:23:05,VALID,915.628,VALID,0,VALID,96.9546,VALID,0,VALID,18.7113,VALID,149,VALID,0,
2012-10-23, 01:24:05,VALID,915.622,VALID,0,VALID,96.9622,VALID,0,VALID,18.6918,VALID,149,VALID,0,
2012-10-23, 01:25:05,VALID,915.563,VALID,0,VALID,96.9546,VALID,0.107441,VALID,18.6723,VALID,149,VALID,0,
2012-10-23, 01:26:05,VALID,915.615,VALID,0,VALID,96.9546,VALID,0,VALID,18.6528,VALID,149,VALID,0,
2012-10-23, 01:27:05,VALID,915.576,VALID,0,VALID,96.9622,VALID,0,VALID,18.6542,VALID,149,VALID,0,
2012-10-23, 01:28:05,VALID,915.56,VALID,0,VALID,96.9775,VALID,0,VALID,18.6528,VALID,149,VALID,0,
2012-10-23, 01:29:05,VALID,915.543,VALID,0,VALID,96.9775,VALID,0,VALID,18.6542,VALID,149,VALID,0,
2012-10-23, 01:30:05,VALID,915.521,VALID,0,VALID,96.9546,VALID,0,VALID,18.6542,VALID,149,VALID,0,
2012-10-23, 01:31:05,VALID,915.538,VALID,0,VALID,97.008,VALID,0,VALID,18.6542,VALID,149,VALID,0,
2012-10-23, 01:32:05,VALID,915.536,VALID,0,VALID,96.9927,VALID,0,VALID,18.6347,VALID,149,VALID,0.521875,
2012-10-23, 01:33:05,VALID,915.551,VALID,0,VALID,97.008,VALID,0,VALID,18.6347,VALID,149,VALID,0.876562,
2012-10-23, 01:34:05,VALID,915.509,VALID,0,VALID,97.0232,VALID,0,VALID,18.6347,VALID,149,VALID,0.8625,
2012-10-23, 01:35:05,VALID,915.496,VALID,0,VALID,97.0232,VALID,0,VALID,18.6347,VALID,149,VALID,0.503125,
2012-10-23, 01:36:05,VALID,915.473,VALID,0,VALID,97.0232,VALID,0,VALID,18.5957,VALID,149,VALID,0.416406,
2012-10-23, 01:37:05,VALID,915.444,VALID,0,VALID,97.008,VALID,0,VALID,18.5957,VALID,149,VALID,0.198828,
2012-10-23, 01:38:05,VALID,915.457,VALID,0,VALID,97.0385,VALID,0,VALID,18.6152,VALID,149,VALID,0.258594,
2012-10-23, 01:39:05,VALID,915.465,VALID,0,VALID,97.0613,VALID,0,VALID,18.5957,VALID,149,VALID,0,
2012-10-23, 01:40:05,VALID,915.438,VALID,0,VALID,97.069,VALID,0,VALID,18.5957,VALID,149,VALID,0,
2012-10-23, 01:41:05,VALID,915.494,VALID,0,VALID,97.0766,VALID,0,VALID,18.5943,VALID,149,VALID,0.410547,
2012-10-23, 01:42:05,VALID,915.515,VALID,0,VALID,97.0842,VALID,0,VALID,18.5748,VALID,149,VALID,0.653516,
2012-10-23, 01:43:05,VALID,915.535,VALID,0,VALID,97.0918,VALID,0,VALID,18.5748,VALID,149,VALID,0.444531,
2012-10-23, 01:44:05,VALID,915.545,VALID,0,VALID,97.0918,VALID,0,VALID,18.5553,VALID,149,VALID,0.616406,
2012-10-23, 01:45:05,VALID,915.531,VALID,0,VALID,97.0918,VALID,0,VALID,18.5748,VALID,149,VALID,0.259766,
2012-10-23, 01:46:05,VALID,915.525,VALID,0,VALID,97.1071,VALID,0,VALID,18.5748,VALID,149,VALID,0,
2012-10-23, 01:47:05,VALID,915.544,VALID,0,VALID,97.1071,VALID,0.107441,VALID,18.5943,VALID,149,VALID,0,
2012-10-23, 01:48:05,VALID,915.483,VALID,0,VALID,97.1299,VALID,0,VALID,18.5553,VALID,149,VALID,0.293359,
2012-10-23, 01:49:05,VALID,915.475,VALID,0,VALID,97.1452,VALID,0,VALID,18.5943,VALID,149,VALID,0.450391,
2012-10-23, 01:50:05,VALID,915.475,VALID,0,VALID,97.1528,VALID,0,VALID,18.6333,VALID,149,VALID,0.560938,
2012-10-23, 01:51:05,VALID,915.483,VALID,0,VALID,97.1681,VALID,0,VALID,18.6528,VALID,149,VALID,0.587109,
2012-10-23, 01:52:05,VALID,915.489,VALID,0,VALID,97.1909,VALID,0,VALID,18.6333,VALID,149,VALID,0.157031,
2012-10-23, 01:53:05,VALID,915.473,VALID,0,VALID,97.1833,VALID,0,VALID,18.6138,VALID,149,VALID,0.417969,
2012-10-23, 01:54:05,VALID,915.494,VALID,0,VALID,97.1757,VALID,0,VALID,18.5734,VALID,149,VALID,0.732813,
2012-10-23, 01:55:05,VALID,915.497,VALID,0,VALID,97.1833,VALID,0,VALID,18.5943,VALID,149,VALID,0.645312,
2012-10-23, 01:56:05,VALID,915.521,VALID,0,VALID,97.1757,VALID,0,VALID,18.5943,VALID,149,VALID,0.13125,
2012-10-23, 01:57:05,VALID,915.507,VALID,0,VALID,97.1909,VALID,0,VALID,18.6333,VALID,144,VALID,1.01875,
2012-10-23, 01:58:05,VALID,915.505,VALID,0,VALID,97.1909,VALID,0,VALID,18.6333,VALID,125,VALID,0.766406,
2012-10-23, 01:59:05,VALID,915.523,VALID,0,VALID,97.1833,VALID,0,VALID,18.6333,VALID,127,VALID,0.682031,
2012-10-23, 02:00:05,VALID,915.493,VALID,0,VALID,97.1681,VALID,0,VALID,18.6138,VALID,126,VALID,0.672656,
2012-10-23, 02:01:05,VALID,915.51,VALID,0,VALID,97.2062,VALID,0,VALID,18.6138,VALID,126,VALID,0.542969,
2012-10-23, 02:02:05,VALID,915.486,VALID,0,VALID,97.1757,VALID,0,VALID,18.6528,VALID,126,VALID,0.655859,
2012-10-23, 02:03:05,VALID,915.503,VALID,0,VALID,97.1757,VALID,0,VALID,18.6723,VALID,126,VALID,0.447266,
2012-10-23, 02:04:05,VALID,915.502,VALID,0,VALID,97.1833,VALID,0,VALID,18.6723,VALID,126,VALID,0.80625,
2012-10-23, 02:05:05,VALID,915.509,VALID,0,VALID,97.1604,VALID,0,VALID,18.6513,VALID,126,VALID,0.964453,
2012-10-23, 02:06:05,VALID,915.503,VALID,0,VALID,97.1528,VALID,0,VALID,18.6918,VALID,126,VALID,0.861719,
2012-10-23, 02:07:05,VALID,915.502,VALID,0,VALID,97.1376,VALID,0,VALID,18.7113,VALID,126,VALID,1.12695,
2012-10-23, 02:08:05,VALID,915.49,VALID,0,VALID,97.1299,VALID,0,VALID,18.6723,VALID,126,VALID,0.948047,
2012-10-23, 02:09:05,VALID,915.442,VALID,0,VALID,97.1071,VALID,0,VALID,18.6723,VALID,126,VALID,0.676172,
2012-10-23, 02:10:05,VALID,915.414,VALID,0,VALID,97.0842,VALID,0,VALID,18.6513,VALID,126,VALID,0.696484,
2012-10-23, 02:11:05,VALID,915.374,VALID,0,VALID,97.0918,VALID,0,VALID,18.6347,VALID,126,VALID,0.570313,
2012-10-23, 02:12:05,VALID,915.315,VALID,0,VALID,97.0537,VALID,0,VALID,18.6152,VALID,126,VALID,0.498828,
2012-10-23, 02:13:05,VALID,915.257,VALID,0,VALID,97.0308,VALID,0,VALID,18.5762,VALID,126,VALID,0.55,
2012-10-23, 02:14:05,VALID,915.217,VALID,0,VALID,97.0156,VALID,0,VALID,18.5567,VALID,126,VALID,0.667969,
2012-10-23, 02:15:05,VALID,915.214,VALID,0,VALID,97.0385,VALID,0,VALID,18.5372,VALID,126,VALID,0.653125,
2012-10-23, 02:16:05,VALID,915.194,VALID,0,VALID,97.0232,VALID,0,VALID,18.5372,VALID,126,VALID,0.644922,
2012-10-23, 02:17:05,VALID,915.146,VALID,0,VALID,97.069,VALID,0,VALID,18.5177,VALID,126,VALID,0.475781,
2012-10-23, 02:18:05,VALID,915.12,VALID,0,VALID,97.0842,VALID,0,VALID,18.4982,VALID,126,VALID,0.233984,
2012-10-23, 02:19:05,VALID,915.114,VALID,0,VALID,97.069,VALID,0,VALID,18.4592,VALID,126,VALID,0.142188,
2012-10-23, 02:20:05,VALID,915.089,VALID,0,VALID,97.0613,VALID,0,VALID,18.4592,VALID,126,VALID,0.38125,
2012-10-23, 02:21:05,VALID,915.064,VALID,0,VALID,97.0766,VALID,0,VALID,18.4383,VALID,126,VALID,0.422656,
2012-10-23, 02:22:05,VALID,915.053,VALID,0,VALID,97.1147,VALID,0,VALID,18.4982,VALID,126,VALID,0.496484,
2012-10-23, 02:23:05,VALID,915.057,VALID,0,VALID,97.1376,VALID,0,VALID,18.4787,VALID,126,VALID,0.574609,
2012-10-23, 02:24:05,VALID,915.051,VALID,0,VALID,97.1223,VALID,0,VALID,18.4592,VALID,126,VALID,0.861328,
2012-10-23, 02:25:05,VALID,915.049,VALID,0,VALID,97.1223,VALID,0,VALID,18.4383,VALID,126,VALID,0.775,
2012-10-23, 02:26:05,VALID,915.039,VALID,0,VALID,97.1223,VALID,0,VALID,18.4954,VALID,126,VALID,1.09961,
2012-10-23, 02:27:05,VALID,915.032,VALID,0,VALID,97.1376,VALID,0,VALID,18.5539,VALID,126,VALID,1.09727,
2012-10-23, 02:28:05,VALID,915.015,VALID,0,VALID,97.1376,VALID,0.107441,VALID,18.5539,VALID,125,VALID,0.822656,
2012-10-23, 02:29:05,VALID,915.004,VALID,0,VALID,97.1299,VALID,0,VALID,18.5929,VALID,111,VALID,0.817578,
2012-10-23, 02:30:05,VALID,915.019,VALID,0,VALID,97.069,VALID,0,VALID,18.6124,VALID,93,VALID,1.04141,
2012-10-23, 02:31:05,VALID,915.048,VALID,0,VALID,97.0461,VALID,0,VALID,18.6333,VALID,93,VALID,0.9875,
2012-10-23, 02:32:05,VALID,915.071,VALID,0,VALID,97.0003,VALID,0,VALID,18.6319,VALID,93,VALID,1.08555,
2012-10-23, 02:33:05,VALID,915.068,VALID,0,VALID,96.9775,VALID,0,VALID,18.6513,VALID,93,VALID,1.1957,
2012-10-23, 02:34:05,VALID,915.107,VALID,0,VALID,96.9622,VALID,0,VALID,18.6723,VALID,105,VALID,1.17188,
2012-10-23, 02:35:05,VALID,915.103,VALID,0,VALID,96.9241,VALID,0.107441,VALID,18.6528,VALID,121,VALID,1.40039,
2012-10-23, 02:36:05,VALID,915.112,VALID,0,VALID,96.8707,VALID,0,VALID,18.6723,VALID,135,VALID,1.49727,
2012-10-23, 02:37:05,VALID,915.109,VALID,0,VALID,96.8555,VALID,0,VALID,18.6333,VALID,137,VALID,0.991797,
2012-10-23, 02:38:05,VALID,915.079,VALID,0,VALID,96.8174,VALID,0,VALID,18.6138,VALID,148,VALID,0.374219,
2012-10-23, 02:39:05,VALID,915.104,VALID,0,VALID,96.7869,VALID,0.107441,VALID,18.5553,VALID,133,VALID,0.523828,
2012-10-23, 02:40:05,VALID,915.073,VALID,0,VALID,96.7945,VALID,0,VALID,18.5163,VALID,158,VALID,0.964844,
2012-10-23, 02:41:05,VALID,915.071,VALID,0,VALID,96.7945,VALID,0,VALID,18.5163,VALID,146,VALID,1.06367,
2012-10-23, 02:42:05,VALID,915.074,VALID,0,VALID,96.8707,VALID,0,VALID,18.4564,VALID,142,VALID,1.12969,
2012-10-23, 02:43:05,VALID,915.069,VALID,0,VALID,96.886,VALID,0,VALID,18.4578,VALID,142,VALID,0.616797,
2012-10-23, 02:44:05,VALID,915.087,VALID,0,VALID,96.9241,VALID,0,VALID,18.4383,VALID,143,VALID,0.961328,
2012-10-23, 02:45:05,VALID,915.091,VALID,0,VALID,96.947,VALID,0,VALID,18.4578,VALID,151,VALID,1.10312,
2012-10-23, 02:46:05,VALID,915.108,VALID,0,VALID,96.9775,VALID,0,VALID,18.4578,VALID,144,VALID,1.22109,
2012-10-23, 02:47:05,VALID,915.128,VALID,0,VALID,97.0308,VALID,0,VALID,18.4759,VALID,143,VALID,1.19492,
2012-10-23, 02:48:05,VALID,915.131,VALID,0,VALID,97.0613,VALID,0.107441,VALID,18.4564,VALID,143,VALID,0.878125,
2012-10-23, 02:49:04,VALID,915.104,VALID,0,VALID,97.0613,VALID,0,VALID,18.4773,VALID,143,VALID,0.523047,
2012-10-23, 02:50:04,VALID,915.069,VALID,0,VALID,97.1071,VALID,0,VALID,18.4369,VALID,143,VALID,0,
2012-10-23, 02:51:04,VALID,915.051,VALID,0,VALID,97.0918,VALID,0,VALID,18.4188,VALID,143,VALID,0,
2012-10-23, 02:52:04,VALID,915.02,VALID,0,VALID,97.0994,VALID,0,VALID,18.4383,VALID,134,VALID,0,
2012-10-23, 02:53:04,VALID,915.037,VALID,0,VALID,97.1071,VALID,0,VALID,18.4578,VALID,140,VALID,0,
2012-10-23, 02:54:04,VALID,914.991,VALID,0,VALID,97.1376,VALID,0,VALID,18.4968,VALID,137,VALID,0,
2012-10-23, 02:55:04,VALID,915.003,VALID,0,VALID,97.1681,VALID,0,VALID,18.4968,VALID,151,VALID,0.239844,
2012-10-23, 02:56:04,VALID,915.024,VALID,0,VALID,97.1681,VALID,0,VALID,18.4968,VALID,148,VALID,0.655078,
2012-10-23, 02:57:04,VALID,914.998,VALID,0,VALID,97.1681,VALID,0,VALID,18.5163,VALID,138,VALID,1.12656,
2012-10-23, 02:58:04,VALID,915.007,VALID,0,VALID,97.2138,VALID,0,VALID,18.5163,VALID,138,VALID,0.642187,
2012-10-23, 02:59:04,VALID,915.017,VALID,0,VALID,97.1986,VALID,0,VALID,18.5372,VALID,138,VALID,0.984766,
2012-10-23, 03:00:04,VALID,915.008,VALID,0,VALID,97.229,VALID,0,VALID,18.5163,VALID,138,VALID,0.805859,
2012-10-23, 03:01:04,VALID,915.005,VALID,0,VALID,97.2138,VALID,0,VALID,18.5762,VALID,151,VALID,1.0793,
2012-10-23, 03:02:04,VALID,915.023,VALID,0,VALID,97.2214,VALID,0,VALID,18.5762,VALID,135,VALID,0.835547,
2012-10-23, 03:03:04,VALID,914.987,VALID,0,VALID,97.2062,VALID,0,VALID,18.5957,VALID,147,VALID,0.957812,
2012-10-23, 03:04:04,VALID,915.013,VALID,0,VALID,97.1757,VALID,0,VALID,18.5762,VALID,139,VALID,0.237891,
2012-10-23, 03:05:04,VALID,914.984,VALID,0,VALID,97.1909,VALID,0,VALID,18.5762,VALID,152,VALID,0,
2012-10-23, 03:06:04,VALID,915.013,VALID,0,VALID,97.1681,VALID,0,VALID,18.5567,VALID,152,VALID,0,
2012-10-23, 03:07:04,VALID,915.015,VALID,0,VALID,97.1528,VALID,0,VALID,18.5567,VALID,152,VALID,0,
2012-10-23, 03:08:04,VALID,914.997,VALID,0,VALID,97.1528,VALID,0,VALID,18.5163,VALID,152,VALID,0,
2012-10-23, 03:09:04,VALID,915.007,VALID,0,VALID,97.1299,VALID,0,VALID,18.5177,VALID,152,VALID,0,
2012-10-23, 03:10:04,VALID,914.998,VALID,0,VALID,97.1071,VALID,0,VALID,18.5177,VALID,152,VALID,0,
2012-10-23, 03:11:04,VALID,915.009,VALID,0,VALID,97.1299,VALID,0,VALID,18.5177,VALID,152,VALID,0,
2012-10-23, 03:12:04,VALID,915.01,VALID,0,VALID,97.0842,VALID,0,VALID,18.4787,VALID,152,VALID,0,
2012-10-23, 03:13:04,VALID,914.994,VALID,0,VALID,97.0842,VALID,0,VALID,18.4383,VALID,152,VALID,0,
2012-10-23, 03:14:04,VALID,915.001,VALID,0,VALID,97.0918,VALID,0,VALID,18.4188,VALID,152,VALID,0,
2012-10-23, 03:15:04,VALID,914.993,VALID,0,VALID,97.0842,VALID,0,VALID,18.4188,VALID,152,VALID,0,
2012-10-23, 03:16:04,VALID,914.996,VALID,0,VALID,97.0994,VALID,0,VALID,18.4397,VALID,152,VALID,0,
2012-10-23, 03:17:04,VALID,914.958,VALID,0,VALID,97.1223,VALID,0,VALID,18.4202,VALID,152,VALID,0,
2012-10-23, 03:18:04,VALID,914.974,VALID,0,VALID,97.1223,VALID,0,VALID,18.3798,VALID,152,VALID,0,
2012-10-23, 03:19:04,VALID,914.979,VALID,0,VALID,97.1071,VALID,0,VALID,18.3812,VALID,152,VALID,0,
2012-10-23, 03:20:04,VALID,914.953,VALID,0,VALID,97.1071,VALID,0,VALID,18.3812,VALID,152,VALID,0,
2012-10-23, 03:21:04,VALID,914.968,VALID,0,VALID,97.1452,VALID,0,VALID,18.3812,VALID,152,VALID,0,
2012-10-23, 03:22:04,VALID,914.93,VALID,0,VALID,97.1528,VALID,0,VALID,18.4202,VALID,152,VALID,0,
2012-10-23, 03:23:04,VALID,914.92,VALID,0,VALID,97.1528,VALID,0,VALID,18.4202,VALID,152,VALID,0,
2012-10-23, 03:24:04,VALID,914.909,VALID,0,VALID,97.1681,VALID,0,VALID,18.4007,VALID,152,VALID,0,
2012-10-23, 03:25:04,VALID,914.928,VALID,0,VALID,97.1452,VALID,0,VALID,18.3812,VALID,152,VALID,0,
2012-10-23, 03:26:04,VALID,914.928,VALID,0,VALID,97.1528,VALID,0,VALID,18.3617,VALID,152,VALID,0,
2012-10-23, 03:27:04,VALID,914.955,VALID,0,VALID,97.1376,VALID,0,VALID,18.3812,VALID,152,VALID,0,
2012-10-23, 03:28:04,VALID,914.951,VALID,0,VALID,97.1757,VALID,0,VALID,18.3798,VALID,152,VALID,0,
2012-10-23, 03:29:04,VALID,914.935,VALID,0,VALID,97.1528,VALID,0,VALID,18.3603,VALID,151,VALID,0,
2012-10-23, 03:30:04,VALID,914.917,VALID,0,VALID,97.1833,VALID,0,VALID,18.3617,VALID,117,VALID,0,
2012-10-23, 03:31:04,VALID,914.9,VALID,0,VALID,97.1604,VALID,0,VALID,18.4007,VALID,117,VALID,0,
2012-10-23, 03:32:04,VALID,914.899,VALID,0,VALID,97.1986,VALID,0,VALID,18.3993,VALID,117,VALID,0,
2012-10-23, 03:33:04,VALID,914.867,VALID,0,VALID,97.1986,VALID,0,VALID,18.4202,VALID,117,VALID,0,
2012-10-23, 03:34:04,VALID,914.843,VALID,0,VALID,97.1681,VALID,0,VALID,18.3603,VALID,116,VALID,0.923828,
2012-10-23, 03:35:04,VALID,914.891,VALID,0,VALID,97.1604,VALID,0,VALID,18.3798,VALID,117,VALID,0.960156,
2012-10-23, 03:36:04,VALID,914.905,VALID,0,VALID,97.1528,VALID,0,VALID,18.3812,VALID,117,VALID,0.837109,
2012-10-23, 03:37:04,VALID,914.907,VALID,0,VALID,97.1452,VALID,0,VALID,18.3617,VALID,117,VALID,0.64375,
2012-10-23, 03:38:04,VALID,914.942,VALID,0,VALID,97.1376,VALID,0,VALID,18.3603,VALID,116,VALID,0.471094,
2012-10-23, 03:39:04,VALID,914.959,VALID,0,VALID,97.1528,VALID,0,VALID,18.4007,VALID,117,VALID,0.590234,
2012-10-23, 03:40:04,VALID,914.956,VALID,0,VALID,97.1604,VALID,0,VALID,18.3812,VALID,116,VALID,0.446875,
2012-10-23, 03:41:04,VALID,914.915,VALID,0,VALID,97.1757,VALID,0.107441,VALID,18.4188,VALID,116,VALID,0.696094,
2012-10-23, 03:42:04,VALID,914.895,VALID,0,VALID,97.1909,VALID,0,VALID,18.4188,VALID,117,VALID,0.520703,
2012-10-23, 03:43:04,VALID,914.917,VALID,0,VALID,97.1986,VALID,0,VALID,18.4383,VALID,117,VALID,0.185547,
2012-10-23, 03:44:04,VALID,914.919,VALID,0,VALID,97.2062,VALID,0,VALID,18.4188,VALID,117,VALID,0.0257812,
2012-10-23, 03:45:04,VALID,914.936,VALID,0,VALID,97.1681,VALID,0.107441,VALID,18.3603,VALID,116,VALID,0,
2012-10-23, 03:46:04,VALID,914.939,VALID,0,VALID,97.1909,VALID,0,VALID,18.3408,VALID,117,VALID,0,
2012-10-23, 03:47:04,VALID,914.994,VALID,0,VALID,97.1604,VALID,0.107441,VALID,18.3798,VALID,117,VALID,0,
2012-10-23, 03:48:04,VALID,914.98,VALID,0,VALID,97.1909,VALID,0.107441,VALID,18.3798,VALID,116,VALID,0,